Weather History for Ely, MN

Change the Weather History Date:

Saturday, January 19, 2013

  Actual Average Record
Temperature  
Mean Temperature 9 °F -  
Max Temperature 23 °F 14 °F 30 °F (1997)
Min Temperature -7 °F -1 °F -32 °F (2004)
Degree Days  
Heating Degree Days 56    
Moisture  
Dew Point 8 °F    
Average Humidity 86    
Maximum Humidity 100    
Minimum Humidity 71    
Precipitation  
Precipitation 0.01 in - - ()
Sea Level Pressure  
Sea Level Pressure 29.68 in    
Wind  
Wind Speed 7 mph (West)    
Max Wind Speed 21 mph    
Max Gust Speed 32 mph    
Visibility 5 miles    
Events Snow    
Averages and records for this station are not official NWS values.
T = Trace of Precipitation, MM = Missing Value Source: NWS Daily Summary

Daily Weather History Graph

Daily Weather History Graph

Search for Another Location

Airport:

Trip Planner

Search our weather history database for the weather conditions in past years. The results will help you decide how hot, cold, wet, or windy it might be!

Date:

Astronomy

Jan. 19, 2013 Rise Set
Actual Time 7:48 AM CST 4:48 PM CST
Civil Twilight 7:13 AM CST 5:22 PM CST
Nautical Twilight 6:35 AM CST 6:01 PM CST
Astronomical Twilight 5:58 AM CST 6:37 PM CST
Moon 11:19 AM CST (1/19) 1:16 AM CST (1/19)
Length of Visible Light 10h 09m
Length of Day
9h 00m
First Quarter, 57% of the Moon is Illuminated
Jan 19
First Quarter
Jan 26
Full
Feb 3
Last Quarter
Feb 10
New
Feb 17
First Quarter

Hourly Weather History & Observations

Time (CST) Temp. Windchill Dew Point Humidity Pressure Visibility Wind Dir Wind Speed Gust Speed Precip Events Conditions
12:13 AM 15.8 °F 10.2 °F 14.0 °F 93% 29.69 in 10.0 mi SE 3.5 mph - N/A   Overcast
12:32 AM 15.8 °F - 15.8 °F 100% 29.68 in 10.0 mi Calm Calm - N/A   Overcast
12:53 AM 17.6 °F - 15.8 °F 93% 29.68 in 10.0 mi Calm Calm - N/A   Overcast
1:13 AM 17.6 °F - 15.8 °F 93% 29.69 in 5.0 mi Calm Calm - N/A Snow Light Snow
1:33 AM 17.6 °F - 15.8 °F 93% 29.69 in 4.0 mi Calm Calm - N/A Snow Light Snow
1:53 AM 17.6 °F 12.3 °F 15.8 °F 93% 29.68 in 5.0 mi SE 3.5 mph - N/A Snow Light Snow
2:13 AM 17.6 °F 12.3 °F 15.8 °F 93% 29.68 in 4.0 mi SE 3.5 mph - N/A Snow Light Snow
2:33 AM 17.6 °F - 15.8 °F 93% 29.67 in 2.5 mi Calm Calm - N/A Snow Light Snow
2:53 AM 17.6 °F - 15.8 °F 93% 29.67 in 2.5 mi Calm Calm - N/A Snow Light Snow
3:13 AM 17.6 °F - 15.8 °F 93% 29.66 in 2.0 mi Calm Calm - N/A Snow Light Snow
3:33 AM 17.6 °F - 15.8 °F 93% 29.65 in 1.8 mi Calm Calm - N/A Snow Light Snow
3:53 AM 19.4 °F - 17.6 °F 93% 29.64 in 1.5 mi Calm Calm - N/A Snow Light Snow
4:13 AM 19.4 °F - 17.6 °F 93% 29.64 in 1.8 mi Calm Calm - N/A Snow Light Snow
4:33 AM 19.4 °F 14.3 °F 17.6 °F 93% 29.62 in 0.5 mi SE 3.5 mph - 0.01 in Snow Heavy Snow
4:53 AM 19.4 °F 11.5 °F 19.4 °F 100% 29.60 in 1.2 mi SSE 5.8 mph - 0.01 in Snow Light Snow
5:13 AM 21.2 °F 13.6 °F 19.4 °F 93% 29.60 in 1.8 mi SSE 5.8 mph - N/A Snow Light Snow
5:33 AM 21.2 °F 13.6 °F 19.4 °F 93% 29.59 in 1.0 mi South 5.8 mph - N/A Snow Light Snow
5:53 AM 21.2 °F 10.9 °F 19.4 °F 93% 29.57 in 4.0 mi South 9.2 mph - N/A Snow Light Snow
6:13 AM 21.2 °F 11.7 °F 19.4 °F 93% 29.57 in 10.0 mi South 8.1 mph - N/A Snow Light Snow
6:33 AM 21.2 °F 12.6 °F 19.4 °F 93% 29.56 in 10.0 mi South 6.9 mph - N/A   Overcast
6:53 AM 21.2 °F 10.9 °F 19.4 °F 93% 29.56 in 1.2 mi South 9.2 mph - N/A Snow Light Snow
7:13 AM 21.2 °F 10.9 °F 19.4 °F 93% 29.55 in 2.5 mi South 9.2 mph - N/A Snow Light Snow
7:33 AM 21.2 °F 12.6 °F 19.4 °F 93% 29.54 in 10.0 mi South 6.9 mph - N/A   Overcast
7:53 AM 21.2 °F 11.7 °F 19.4 °F 93% 29.54 in 10.0 mi South 8.1 mph - N/A   Overcast
8:12 AM 21.2 °F 10.9 °F 19.4 °F 93% 29.54 in 10.0 mi South 9.2 mph - N/A   Overcast
8:33 AM 21.2 °F 13.6 °F 19.4 °F 93% 29.54 in 10.0 mi South 5.8 mph - N/A   Overcast
8:53 AM 21.2 °F 12.6 °F 19.4 °F 93% 29.53 in 10.0 mi South 6.9 mph - N/A   Overcast
9:13 AM 21.2 °F 12.6 °F 21.2 °F 100% 29.52 in 10.0 mi South 6.9 mph - N/A   Overcast
9:33 AM 23.0 °F 14.7 °F 21.2 °F 93% 29.52 in 5.0 mi SSW 6.9 mph - N/A   Overcast
9:53 AM 23.0 °F 15.8 °F 21.2 °F 93% 29.52 in 2.0 mi SW 5.8 mph - N/A   Overcast
10:13 AM 23.0 °F 15.8 °F 21.2 °F 93% 29.51 in 2.0 mi SSW 5.8 mph - N/A   Overcast
10:33 AM 23.0 °F 17.0 °F 21.2 °F 93% 29.51 in 2.0 mi SW 4.6 mph - N/A   Overcast
10:53 AM 23.0 °F 14.7 °F 21.2 °F 93% 29.51 in 1.5 mi WSW 6.9 mph - N/A   Overcast
11:13 AM 23.0 °F 11.7 °F 21.2 °F 93% 29.50 in 2.0 mi West 11.5 mph 16.1 mph N/A   Overcast
11:33 AM 23.0 °F 10.1 °F 21.2 °F 93% 29.50 in 2.5 mi West 15.0 mph 23.0 mph N/A Snow Light Snow
11:53 AM 21.2 °F 8.3 °F 19.4 °F 93% 29.50 in 3.0 mi WNW 13.8 mph 20.7 mph N/A Snow Light Snow
12:13 PM 19.4 °F 6.6 °F 17.6 °F 93% 29.51 in 7.0 mi West 12.7 mph 25.3 mph N/A Snow Light Snow
12:33 PM 19.4 °F 5.0 °F 15.8 °F 86% 29.50 in 1.0 mi West 16.1 mph 23.0 mph N/A Snow Light Snow
12:53 PM 19.4 °F 6.6 °F 15.8 °F 86% 29.52 in 1.0 mi WNW 12.7 mph 23.0 mph N/A Snow Light Snow
1:13 PM 17.6 °F 5.0 °F 12.2 °F 79% 29.53 in 1.0 mi WNW 11.5 mph 26.5 mph N/A Snow Light Snow
1:33 PM 15.8 °F 2.1 °F 10.4 °F 79% 29.53 in 2.5 mi WNW 12.7 mph 21.9 mph N/A Snow Light Snow
1:52 PM 15.8 °F 0.3 °F 10.4 °F 79% 29.54 in 0.8 mi WNW 16.1 mph 24.2 mph N/A Snow Light Snow
2:13 PM 14.0 °F -2.0 °F 8.6 °F 79% 29.55 in 2.5 mi WNW 16.1 mph 28.8 mph N/A Snow Light Snow
2:33 PM 12.2 °F -5.8 °F 6.8 °F 79% 29.57 in 1.2 mi WNW 19.6 mph 31.1 mph N/A Snow Light Snow
2:52 PM 12.2 °F -3.7 °F 6.8 °F 79% 29.59 in 1.5 mi NW 15.0 mph 26.5 mph N/A Snow Light Snow
3:13 PM 10.4 °F -6.6 °F 3.2 °F 73% 29.61 in 3.0 mi WNW 16.1 mph 24.2 mph N/A Snow Light Snow
3:33 PM 8.6 °F -10.0 °F 3.2 °F 79% 29.62 in 1.0 mi WNW 18.4 mph 28.8 mph N/A Snow Light Snow
3:52 PM 8.6 °F -8.3 °F 1.4 °F 73% 29.65 in 1.2 mi NW 15.0 mph 25.3 mph N/A Snow Light Snow
4:13 PM 6.8 °F -11.3 °F 1.4 °F 79% 29.66 in 1.8 mi WNW 16.1 mph 24.2 mph N/A Snow Light Snow
4:33 PM 5.0 °F -15.7 °F -0.4 °F 78% 29.68 in 4.0 mi NW 20.7 mph 28.8 mph N/A   Haze
4:52 PM 5.0 °F -13.0 °F -2.2 °F 72% 29.70 in 4.0 mi NW 15.0 mph 29.9 mph N/A   Haze
5:13 PM 3.2 °F -17.1 °F -2.2 °F 78% 29.72 in 4.0 mi NW 18.4 mph 31.1 mph N/A   Haze
5:33 PM 1.4 °F -19.9 °F -4.0 °F 78% 29.74 in 5.0 mi NW 19.6 mph 32.2 mph N/A   Haze
5:52 PM 1.4 °F -19.9 °F -5.8 °F 72% 29.76 in 4.0 mi NW 19.6 mph 32.2 mph N/A   Haze
6:13 PM -0.4 °F -22.3 °F -5.8 °F 78% 29.79 in 4.0 mi NNW 19.6 mph 31.1 mph N/A   Haze
6:33 PM -0.4 °F -21.7 °F -7.6 °F 72% 29.82 in 7.0 mi NNW 18.4 mph 28.8 mph N/A   Scattered Clouds
6:52 PM -0.4 °F -19.9 °F -7.6 °F 72% 29.83 in 5.0 mi NNW 15.0 mph 29.9 mph N/A   Haze
7:13 PM -2.2 °F -21.5 °F -7.6 °F 78% 29.85 in 7.0 mi NNW 13.8 mph 26.5 mph N/A   Mostly Cloudy
7:33 PM -2.2 °F -18.0 °F -7.6 °F 78% 29.87 in 10.0 mi NW 9.2 mph 28.8 mph N/A   Clear
7:52 PM -2.2 °F -18.9 °F -9.4 °F 71% 29.89 in 7.0 mi NW 10.4 mph 27.6 mph N/A   Clear
8:13 PM -2.2 °F -22.9 °F -9.4 °F 71% 29.91 in 5.0 mi NW 16.1 mph 24.2 mph N/A   Haze
8:33 PM -2.2 °F -19.9 °F -9.4 °F 71% 29.92 in 5.0 mi NNW 11.5 mph 17.3 mph N/A   Haze
8:52 PM -4.0 °F -22.1 °F -9.4 °F 78% 29.94 in 7.0 mi NNW 11.5 mph 20.7 mph N/A   Clear
9:13 PM -4.0 °F -23.0 °F -9.4 °F 78% 29.96 in 10.0 mi NW 12.7 mph 24.2 mph N/A   Clear
9:33 PM -4.0 °F -22.1 °F -9.4 °F 78% 29.98 in 7.0 mi NW 11.5 mph 18.4 mph N/A   Scattered Clouds
9:53 PM -5.8 °F -25.2 °F -9.4 °F 84% 30.00 in 10.0 mi NNW 12.7 mph 20.7 mph N/A   Scattered Clouds
10:13 PM -5.8 °F -21.2 °F -11.2 °F 77% 30.01 in 10.0 mi NW 8.1 mph 16.1 mph N/A   Scattered Clouds
10:33 PM -5.8 °F -18.4 °F -11.2 °F 77% 30.02 in 10.0 mi NW 5.8 mph 17.3 mph N/A   Clear
10:53 PM -5.8 °F -19.9 °F -11.2 °F 77% 30.03 in 10.0 mi NW 6.9 mph - N/A   Clear
11:13 PM -5.8 °F -24.4 °F -11.2 °F 77% 30.03 in 10.0 mi NNW 11.5 mph 17.3 mph N/A   Clear
11:33 PM -5.8 °F -22.4 °F -11.2 °F 77% 30.04 in 7.0 mi NW 9.2 mph 17.3 mph N/A   Clear
11:53 PM -7.6 °F -23.4 °F -11.2 °F 84% 30.04 in 7.0 mi NW 8.1 mph - N/A   Clear